Location: Betz
(49.1556°N, 2.9558°E)
Time: 22:48:26
(UTC+00:00)

Meteor 1-22 Rocket - Pass Details

Date: 18 September 2019
Orbit: 786 x 942 km, 81.2° (Epoch: 14 October)

Event Time Altitude Azimuth Distance (km) Brightness Sun altitude
Exits shadow 20:10:14 33° 162° (SSE) 1,534 5.1 -21.7°
Maximum altitude 20:12:57 61° 96° (E) 1,067 4.4 -22.1°
Drops below altitude 10° 20:18:58 10° 18° (NNE) 2,667 6.9 -23.0°
Sets 20:21:30 0° 15° (NNE) 3,609 7.7 -23.3°
